Regional Weather Roundup
Issued by NWS

Home | Current Version | Previous Version | Text Only | Print | Product List | Glossary Off
Versions: 1 2 3 4 5 6 7 8 9 10 11 12 13 14 15 16 17 18 19 20 21 22 23 24 25 26 27 28 29 30 31 32 33 34 35 36 37 38 39 40 41 42 43 44 45 46 47 48 49 50

771
ASUS45 KABQ 240701
RWRNM
NEW MEXICO REGIONAL WEATHER ROUNDUP
NATIONAL WEATHER SERVICE ALBUQUERQUE NM
100 AM MDT FRI MAR 24 2017

NOTE: "FAIR" MEANS FEW OR NO CLOUDS BELOW 12,000 FEET AGL WITH NO
       SIGNIFICANT WEATHER OR OBSTRUCTIONS TO VISION.

      THIS PRODUCT IS RELEASED AS TWO VERSIONS.  ONE VERSION NEAR
      THE TOP OF THE HOUR CONTAINING PRELIMINARY DATA FROM ALBUQUERQUE
      AND OTHER STATIONS.  A FINAL VERSION WITH ADDITIONAL DATA IS
      ISSUED ABOUT 10 MINUTES AFTER THE HOUR.

NMZ501-503-504-510>518-240800-
NORTHWEST PLATEAU/NORTHCENTRAL MOUNTAINS

CITY           SKY/WX    TMP DP  RH WIND       PRES   REMARKS
FARMINGTON     FAIR      41 N/A N/A W28G38    29.83S
LOS ALAMOS     CLOUDY    34  27  74 S16       29.76S WCI  24
SANTA FE       MOCLDY    36  31  82 SW14G23   29.79F WCI  27
TAOS             N/A     32  23  69 SW22G29   29.74R WCI  19
ANGEL FIRE     LGT SNOW  28  26  90 W21G35    29.66F VSB 3/4 WCI  15

$$
NMZ402-403-502-505>509-240800-
WESTCENTRAL MOUNTAINS/SOUTHWEST MOUNTAINS

CITY           SKY/WX    TMP DP  RH WIND       PRES   REMARKS
GALLUP         CLOUDY    36  33  89 SW17      29.98R WCI  26
GRANTS         CLOUDY    36  29  77 W26G36    29.92F WCI  23
SILVER CITY    FAIR      36  30  78 NW10      30.08F WCI  29

$$
NMZ407-409-411-412-240800-
SOUTHERN DESERTS

CITY           SKY/WX    TMP DP  RH WIND       PRES   REMARKS
DEMING         FAIR      41  29  62 W14       30.06F
LAS CRUCES     FAIR      45  26  46 W8        30.04R
HOLLOMAN AFB   FAIR      48  21  34 SW8       30.02S
ALAMOGORDO     FAIR      45  21  39 S7        30.00S
T OR C         FAIR      42  22  44 CALM      29.98S

$$
NMZ519>523-240800-
CENTRAL VALLEYS/CENTRAL HIGHLANDS

CITY           SKY/WX    TMP DP  RH WIND       PRES   REMARKS
ALBUQUERQUE    FAIR      42  29  59 SW16G24   29.89S
DOUBLE EAGLE   MOCLDY    38  29  71 W17       29.88R WCI  28
MORIARTY ARPT  FAIR      38  30  72 W21G29    29.84F WCI  28
CLINES CORNERS FAIR      31  26  82 W29G38    29.79F WCI  16
BELEN          FAIR      41  29  61 SW13      29.91S
SOCORRO        FAIR      47  22  38 N9G21     29.91R

$$
NMZ524>526-539-540-240800-
SOUTHCENTRAL MOUNTAINS

CITY           SKY/WX    TMP DP  RH WIND       PRES   REMARKS
RUIDOSO        NOT AVBL

$$
NMZ527>531-240800-
NORTHEAST HIGHLANDS/NORTHEAST PLAINS

CITY           SKY/WX    TMP DP  RH WIND       PRES   REMARKS
LAS VEGAS      FAIR      36  24  62 SW25G33   29.66F WCI  24
RATON          FAIR      42  28  57 W29G41    29.44F
CLAYTON        FAIR      44  32  62 SW22      29.48F

$$
NMZ532>537-240800-
EASTCENTRAL PLAINS

CITY           SKY/WX    TMP DP  RH WIND       PRES   REMARKS
SANTA ROSA     FAIR      44  28  54 W18G38    29.74R
TUCUMCARI      FAIR      50  27  40 SW25G33   29.65R
CANNON AFB     FAIR      47  28  46 W17G28    29.78F
CLOVIS AIRPORT FAIR      46  25  42 W25       29.76F

$$
NMZ028-029-538-240800-
SOUTHEAST PLAINS

CITY           SKY/WX    TMP DP  RH WIND       PRES   REMARKS
ROSWELL        FAIR      52  19  27 W20         N/A
ARTESIA        FAIR      54  19  26 W29G35    29.89R
CARLSBAD       FAIR      56  21  25 MISG      29.91R
HOBBS          FAIR      52  18  25 W15G22    29.91S


$$




USA.gov is the U.S. government's official web portal to all federal, state and local government web resources and services.